TimeEDT,TemperatureF,Dew PointF,Humidity,Sea Level PressureIn,VisibilityMPH,Wind Direction,Wind SpeedMPH,Gust SpeedMPH,PrecipitationIn,Events,Conditions,WindDirDegrees,DateUTC
12:41 AM,42.8,42.8,100,30.17,5.0,Calm,Calm,-,N/A,,Overcast,0,2012-10-09 04:41:00
12:53 AM,43.0,42.1,97,30.18,6.0,Calm,Calm,-,N/A,,Overcast,0,2012-10-09 04:53:00
1:53 AM,43.0,41.0,93,30.17,9.0,Calm,Calm,-,N/A,,Overcast,0,2012-10-09 05:53:00
2:53 AM,43.0,41.0,93,30.18,10.0,Calm,Calm,-,N/A,,Overcast,0,2012-10-09 06:53:00
3:39 AM,42.8,39.2,87,30.16,10.0,Calm,Calm,-,N/A,,Mostly Cloudy,0,2012-10-09 07:39:00
3:53 AM,42.8,39.2,87,30.16,10.0,Calm,Calm,-,N/A,,Mostly Cloudy,0,2012-10-09 07:53:00
4:08 AM,42.8,39.2,87,30.16,10.0,Calm,Calm,-,N/A,,Scattered Clouds,0,2012-10-09 08:08:00
4:53 AM,41.0,39.0,93,30.16,10.0,Calm,Calm,-,N/A,,Clear,0,2012-10-09 08:53:00
5:08 AM,41.0,39.2,93,30.15,2.0,Calm,Calm,-,N/A,,Partly Cloudy,0,2012-10-09 09:08:00
5:11 AM,41.0,39.2,93,30.15,1.0,Calm,Calm,-,N/A,,Mist,0,2012-10-09 09:11:00
5:18 AM,39.2,39.2,100,30.16,0.2,Calm,Calm,-,N/A,Fog,Fog,0,2012-10-09 09:18:00
5:53 AM,39.0,37.9,96,30.17,0.2,Calm,Calm,-,N/A,Fog,Fog,0,2012-10-09 09:53:00
6:01 AM,39.2,37.4,93,30.16,0.5,Calm,Calm,-,N/A,Fog,Fog,0,2012-10-09 10:01:00
6:37 AM,41.0,39.2,93,30.17,1.8,Calm,Calm,-,N/A,,Overcast,0,2012-10-09 10:37:00
6:39 AM,41.0,41.0,100,30.17,3.0,Calm,Calm,-,N/A,,Overcast,0,2012-10-09 10:39:00
6:53 AM,42.1,41.0,96,30.19,6.0,Calm,Calm,-,N/A,,Overcast,0,2012-10-09 10:53:00
7:27 AM,41.0,41.0,100,30.18,1.5,Calm,Calm,-,N/A,,Overcast,0,2012-10-09 11:27:00
7:39 AM,41.0,41.0,100,30.18,2.0,Calm,Calm,-,N/A,,Overcast,0,2012-10-09 11:39:00
7:51 AM,41.0,41.0,100,30.18,5.0,Calm,Calm,-,N/A,,Overcast,0,2012-10-09 11:51:00
7:53 AM,41.0,41.0,100,30.19,4.0,Calm,Calm,-,N/A,,Overcast,0,2012-10-09 11:53:00
7:59 AM,42.8,41.0,93,30.18,1.8,Calm,Calm,-,N/A,,Overcast,0,2012-10-09 11:59:00
8:06 AM,42.8,41.0,93,30.19,1.0,Calm,Calm,-,N/A,,Overcast,0,2012-10-09 12:06:00
8:11 AM,42.8,41.0,93,30.19,4.0,Calm,Calm,-,N/A,,Overcast,0,2012-10-09 12:11:00
8:53 AM,43.0,42.1,97,30.21,8.0,Calm,Calm,-,N/A,,Overcast,0,2012-10-09 12:53:00
9:53 AM,44.1,41.0,89,30.20,10.0,Calm,Calm,-,N/A,,Overcast,0,2012-10-09 13:53:00
10:53 AM,45.0,42.1,90,30.19,10.0,ESE,4.6,-,N/A,,Overcast,110,2012-10-09 14:53:00
11:12 AM,44.6,42.8,93,30.18,10.0,Calm,Calm,-,N/A,,Overcast,0,2012-10-09 15:12:00
11:53 AM,48.9,42.1,77,30.18,10.0,WNW,4.6,-,N/A,,Overcast,290,2012-10-09 15:53:00
12:01 PM,50.0,42.8,76,30.17,10.0,Calm,Calm,-,N/A,,Mostly Cloudy,0,2012-10-09 16:01:00
12:29 PM,51.8,44.6,76,30.16,10.0,Calm,Calm,-,N/A,,Mostly Cloudy,0,2012-10-09 16:29:00
12:53 PM,53.1,44.1,71,30.16,10.0,Calm,Calm,-,N/A,,Mostly Cloudy,0,2012-10-09 16:53:00
1:00 PM,53.6,44.6,72,30.15,10.0,Calm,Calm,-,N/A,,Scattered Clouds,0,2012-10-09 17:00:00
1:18 PM,53.6,42.8,67,30.14,10.0,Calm,Calm,-,N/A,,Mostly Cloudy,0,2012-10-09 17:18:00
1:53 PM,53.1,42.1,66,30.13,10.0,ESE,3.5,-,N/A,,Overcast,110,2012-10-09 17:53:00
2:40 PM,55.4,42.8,63,30.11,10.0,Variable,3.5,-,N/A,,Overcast,0,2012-10-09 18:40:00
2:53 PM,53.1,42.1,66,30.11,10.0,SSE,3.5,-,N/A,,Overcast,160,2012-10-09 18:53:00
3:15 PM,53.6,42.8,67,30.10,10.0,Variable,3.5,-,N/A,,Overcast,0,2012-10-09 19:15:00
3:48 PM,53.6,41.0,62,30.10,10.0,SE,3.5,-,N/A,,Mostly Cloudy,140,2012-10-09 19:48:00
3:53 PM,54.0,42.1,64,30.09,10.0,Calm,Calm,-,N/A,,Overcast,0,2012-10-09 19:53:00
4:53 PM,54.0,42.1,64,30.09,10.0,SSE,4.6,-,N/A,,Overcast,160,2012-10-09 20:53:00
5:33 PM,53.6,42.8,67,30.07,10.0,Calm,Calm,-,N/A,,Overcast,0,2012-10-09 21:33:00
5:45 PM,53.6,42.8,67,30.07,10.0,Variable,3.5,-,N/A,,Overcast,0,2012-10-09 21:45:00
5:53 PM,53.1,43.0,69,30.07,10.0,Variable,3.5,-,N/A,,Overcast,0,2012-10-09 21:53:00
6:30 PM,51.8,42.8,71,30.07,10.0,Calm,Calm,-,N/A,,Overcast,0,2012-10-09 22:30:00
6:53 PM,52.0,43.0,71,30.08,10.0,Variable,3.5,-,N/A,,Overcast,0,2012-10-09 22:53:00
7:53 PM,51.1,43.0,74,30.06,10.0,Calm,Calm,-,N/A,,Overcast,0,2012-10-09 23:53:00
8:53 PM,48.0,42.1,80,30.06,10.0,Calm,Calm,-,N/A,,Mostly Cloudy,0,2012-10-10 00:53:00
9:31 PM,48.2,42.8,82,30.06,10.0,Calm,Calm,-,N/A,,Partly Cloudy,0,2012-10-10 01:31:00
9:53 PM,48.9,42.1,77,30.06,10.0,Calm,Calm,-,N/A,,Clear,0,2012-10-10 01:53:00
10:53 PM,46.9,42.1,83,30.06,10.0,Variable,3.5,-,N/A,,Clear,0,2012-10-10 02:53:00
11:53 PM,46.0,43.0,89,30.05,10.0,Variable,3.5,-,N/A,,Clear,0,2012-10-10 03:53:00